AirNav   Phillips 66 Aviation Fuel
 
 423 users online  

1KS Linn County Airport
Pleasanton, Kansas, USA

GOING TO PLEASANTON?


FAA INFORMATION EFFECTIVE 08 NOVEMBER 2018

Location

FAA Identifier: 1KS
Lat/Long: 38-10-24.3600N / 094-41-25.1700W
38-10.406000N / 094-41.419500W
38.1734333 / -94.6903250
(estimated)
Elevation: 860 ft. / 262 m (estimated)
From city: 1 mile NW of PLEASANTON, KS
Time zone: UTC -6 (UTC -5 during Daylight Saving Time)
Zip code: 66767

Airport Operations

Airport use: Open to the public
Activation date: 11/2014
Control tower: no
ARTCC: KANSAS CITY CENTER
FSS: WICHITA FLIGHT SERVICE STATION
NOTAMs facility: ICT (NOTAM-D service available)
Attendance: UNATNDD
Wind indicator: yes
Segmented circle: no

Airport Communications

CTAF/UNICOM: 122.8

Nearby radio navigation aids

VOR radial/distance  VOR name  Freq  Var
BUMr231/11.2BUTLER VORTAC115.9007E

Airport Services

Parking: tiedowns

Runway Information

Runway 18/36

Dimensions: 3000 x 60 ft. / 914 x 18 m
Surface: asphalt, in excellent condition
RUNWAY 18  RUNWAY 36
Latitude: 38-10.653333N38-10.158667N
Longitude: 094-41.420667W094-41.418333W
Elevation: 860.0 ft.830.0 ft.
Traffic pattern: rightleft
Markings: basic, in good conditionbasic, in good condition
Obstructions: 25 ft. tree, 1130 ft. from runway, 138 ft. left of centerline, 37:1 slope to clearnone

Airport Ownership and Management from official FAA records

Ownership: Publicly-owned
Owner: LINN COUNTY
306 MAIN STREET
MOUND CITY, KS 66056
Phone 913-795-2274
Manager: DENNIS ARNOLD
306 MAIN STREET
MOUND CITY, KS 66056
Phone 913-795-2274

Additional Remarks

WILDLIFE ON AND INVOF RUNWAY

Instrument Procedures

There are no published instrument procedures at 1KS.

Some nearby airports with instrument procedures:

KBUM - Butler Memorial Airport (18 nm NE)
KFSK - Fort Scott Municipal Airport (23 nm S)
K81 - Miami County Airport (25 nm NW)
KNVD - Nevada Municipal Airport (27 nm SE)
KLRY - Lawrence Smith Memorial Airport (31 nm NE)
 
Loc | Ops | Rwys | IFR | FBO | Links
Com | Nav | Svcs | Stats | Notes


 
Aerial photo
WARNING: Photo may not be current or correct
Aerial photo of 1KS (Linn County Airport)
Photo taken 19-Aug-2015
looking south.

Do you have a better or more recent aerial photo of Linn County Airport that you would like to share? If so, please send us your photo.

 
Airport distance calculator
Flying to Linn County Airport? Find the distance to fly.

From to 1KS

Sunrise and sunset
Times for 16-Nov-2018
 Local
(UTC-6)
 Zulu
(UTC)
Morning civil twilight06:3412:34
Sunrise07:0213:02
Sunset17:0523:05
Evening civil twilight17:3323:33

Current date and time
Zulu (UTC)  16-Nov-2018 08:44:55
Local (UTC-6)  16-Nov-2018 02:44:55
 
METAR
KLRY 
31nm NE 
160835Z AUTO 33003KT 10SM CLR 02/00 A3009 RMK AO2
KOWI 
34nm NW 
160835Z AUTO 32004KT 10SM CLR 02/M01 A3008 RMK AO2
KK88 
38nm SW 
160840Z AUTO 00000KT 10SM CLR 00/M01 A3011 RMK AO1 T00011010
KIXD 
40nm N 
160753Z AUTO 32009KT 10SM CLR 03/M01 A3007 RMK AO2 SLP186 T00281006
KOJC 
41nm N 
160753Z AUTO 34004KT 10SM CLR 04/M01 A3007 RMK AO2 SLP185 T00441006
KPTS 
43nm S 
160835Z AUTO 00000KT 10SM CLR M01/M02 A3009 RMK AO2 T10061019
KCNU 
48nm SW 
160752Z AUTO 34005KT 10SM CLR 03/01 A3009 RMK AO2 SLP192 T00330011
KGLY 
49nm E 
160835Z AUTO 26004KT 10SM CLR 00/M03 A3008 RMK AO2
KLXT 
50nm N 
160753Z AUTO 33010KT 10SM CLR 06/01 A3006 RMK AO2 SLP184 T00610006
TAF
KIXD 
40nm N 
160520Z 1606/1706 27006KT P6SM SKC WS020/34035KT FM161300 30006KT P6SM FEW250 FM162000 17007KT P6SM FEW250
KCNU 
48nm SW 
160538Z 1606/1706 VRB05KT P6SM FEW250
NOTAMs
Click for the latest NOTAMs
NOTAMs are issued by the DoD/FAA and will open in a separate window not controlled by AirNav.

 

 
 

Would you like to see your business listed on this page?

 If your business provides an interesting product or service to pilots, flight crews, aircraft, or users of the Linn County Airport, you should consider listing it here.  To start the listing process, click on the button below
 
Add a business
 

Other Pages about Linn County Airport

Update a link
 
Copyright © AirNav, LLC. All rights reserved. Privacy Policy  Contact